Wind_Speed
19 18 16 16 15 15 14 13 13 12 10 9 8 7 7 6 5 4 4 3 2 1 1 2 2 3 4 5 6 6 7 8 9 10 11 12 13 14 14 15 15 15 16
20 19 17 16 15 15 15 14 13 12 10 9 8 8 7 6 6 5 4 3 2 2 1 2 2 3 4 5 5 6 7 8 9 10 11 12 12 13 14 15 15 15 16
21 20 19 17 16 15 15 14 13 12 11 10 9 8 8 7 6 6 5 4 3 2 2 1 2 3 3 4 5 6 7 8 8 9 10 11 12 13 14 15 15 16 16
22 21 20 18 17 16 15 15 14 13 12 11 10 9 9 8 7 6 6 5 4 3 2 2 2 2 3 4 5 5 6 7 8 9 10 11 12 13 14 15 15 16 16
24 22 20 19 18 17 16 15 14 14 13 11 11 10 10 9 8 7 6 5 4 4 3 2 2 2 2 3 4 5 6 7 8 9 11 12 13 13 14 15 16 16 17
25 23 22 20 19 18 16 15 15 14 13 12 11 11 10 9 8 8 7 6 5 4 3 2 2 2 3 4 5 5 6 7 8 9 10 12 13 14 15 16 16 17 18
27 25 23 21 20 19 17 16 15 14 14 13 12 12 11 10 9 8 7 6 5 5 4 3 3 3 3 4 5 6 7 8 9 10 11 12 13 14 16 16 17 18 18
28 26 24 23 21 20 18 17 16 15 14 14 13 13 12 11 10 9 8 7 6 5 5 4 4 4 5 5 6 7 8 9 10 11 12 13 14 15 16 17 18 19 20
29 27 26 24 23 21 20 19 18 16 15 15 14 13 12 11 11 10 9 8 7 6 6 5 5 5 6 6 7 8 9 10 11 12 13 14 15 16 17 18 19 21 21
31 29 27 26 24 23 21 20 19 18 17 16 15 14 13 12 12 11 10 9 8 7 7 7 6 7 7 8 9 9 10 11 12 13 14 15 16 18 19 20 21 22 23
32 30 29 28 26 25 23 22 21 20 19 18 17 16 15 14 13 12 11 10 9 9 8 8 8 9 9 10 10 11 12 13 14 15 16 17 18 19 20 21 22 23 24
34 32 31 29 28 26 25 24 23 21 20 19 18 17 16 15 14 13 13 12 11 11 11 10 10 11 11 12 12 13 14 15 16 17 18 19 20 21 22 23 23 24 25
36 34 32 31 30 28 27 26 25 23 22 21 20 19 18 17 16 15 14 14 13 13 13 13 13 13 13 14 14 15 16 17 18 19 20 21 22 23 24 24 25 26 27
38 36 34 32 31 30 29 27 26 25 24 23 22 21 20 19 18 17 17 16 16 16 15 15 15 16 16 16 17 18 18 19 20 21 22 23 24 25 26 26 27 28 28
40 38 36 34 33 31 30 29 28 27 26 25 24 23 22 21 20 20 19 19 18 18 18 18 18 18 19 19 20 20 21 22 23 24 24 25 26 27 28 28 29 29 30
42 40 38 36 35 33 31 30 29 28 28 27 26 25 25 24 23 22 22 21 21 21 21 21 21 21 22 22 23 23 24 25 25 26 27 27 28 29 30 30 31 31 32
44 42 40 39 37 35 33 32 30 30 29 28 28 27 27 26 25 25 24 24 24 24 24 24 24 24 25 25 25 26 26 27 28 28 29 30 30 31 32 32 33 33 34
46 44 42 40 39 37 35 34 33 32 31 30 30 30 29 29 28 27 27 27 27 27 27 27 27 27 28 28 28 28 29 30 30 31 32 32 33 33 34 34 35 35 35
47 46 44 42 41 39 38 37 36 35 34 33 33 32 32 31 31 30 30 30 30 29 30 30 31 31 31 31 31 31 32 32 33 33 34 35 35 36 36 36 37 37 37
49 48 46 45 43 42 41 40 39 38 37 36 36 35 34 34 34 34 33 34 34 33 33 33 33 34 34 34 34 34 35 35 35 36 37 37 38 38 38 38 39 39 40
50 49 48 47 45 44 43 42 41 40 39 39 38 37 37 37 37 37 36 37 37 37 37 38 37 37 37 37 37 37 37 38 38 38 39 39 40 40 41 40 41 41 41
51 50 49 48 46 45 45 45 44 43 41 41 40 40 40 40 39 40 40 40 40 40 40 41 41 40 40 41 41 41 40 40 40 41 41 41 42 42 42 43 43 44 44
51 50 49 48 48 47 46 45 45 45 44 43 42 42 41 42 42 43 43 43 43 43 43 44 44 44 43 43 44 44 44 43 43 42 42 42 43 43 44 45 45 45 45
52 51 50 49 49 48 47 46 46 46 45 44 44 44 44 44 44 45 45 46 47 47 47 47 47 46 46 46 46 46 47 47 46 45 44 44 45 45 45 45 45 46 45
53 53 51 51 50 49 48 47 47 46 46 46 46 46 46 46 46 46 47 48 49 50 49 49 49 49 49 48 48 48 49 49 49 50 48 47 47 46 46 46 46 46 45
52 52 53 52 51 50 50 49 49 48 48 48 48 48 48 48 48 49 49 50 51 51 51 50 50 50 50 51 51 51 51 50 50 50 50 49 48 48 47 47 47 46 45
Wind_Direction
223 224 224 225 227 228 226 226 227 226 227 227 223 221 221 223 223 224 223 227 234 257 345 0 9 12 18 21 24 24 23 23 24 23 22 22 20 20 20 19 17 15 13
223 223 223 224 225 226 226 226 225 224 223 221 221 221 223 225 226 226 224 228 237 253 291 336 354 7 10 13 20 21 21 21 21 20 19 18 16 16 16 14 12 10 7
223 223 224 225 225 224 224 224 224 224 223 221 222 222 223 227 227 225 224 230 239 247 268 313 342 358 3 12 15 14 15 16 16 15 13 11 10 10 10 8 6 3 0
223 223 225 226 225 225 225 225 225 224 223 222 222 223 224 226 227 227 226 231 238 245 261 287 318 344 357 4 4 5 5 6 7 6 6 5 4 4 3 2 360 357 354
223 223 224 226 226 225 226 227 226 225 224 224 224 224 224 225 227 229 229 232 237 244 255 271 296 323 342 350 353 355 356 358 357 357 358 358 358 358 357 355 353 351 348
223 224 224 225 227 226 226 227 227 227 226 226 226 226 225 224 227 229 231 234 239 245 251 261 280 299 322 334 340 344 347 350 349 349 350 350 350 350 349 348 346 344 342
222 223 224 225 227 227 227 227 227 228 227 226 226 226 225 226 228 231 233 237 242 248 257 267 280 294 308 321 328 333 338 341 341 342 343 343 343 343 343 341 340 338 336
222 222 224 225 226 227 228 228 227 227 227 226 226 227 227 228 231 233 236 240 246 253 261 272 283 293 301 311 318 324 329 333 334 335 336 337 336 336 336 336 335 334 332
222 223 224 225 226 227 228 229 228 227 227 226 227 227 228 229 231 234 238 243 250 258 264 273 282 290 298 305 310 316 322 326 327 329 330 331 331 331 331 331 331 330 328
221 224 225 226 227 227 228 229 230 229 229 229 229 230 231 232 235 238 241 247 253 259 266 274 283 291 297 302 306 312 316 319 322 324 326 327 327 327 327 327 327 327 326
222 224 226 227 228 228 229 230 231 231 231 231 232 233 233 235 239 242 246 251 256 261 269 276 283 290 296 300 304 309 312 315 318 319 320 321 322 323 324 324 324 325 324
224 225 227 228 229 229 230 230 232 233 234 235 235 236 237 239 243 246 250 255 260 265 271 277 282 288 293 296 301 305 308 312 314 315 316 317 318 320 321 321 321 322 322
224 225 227 229 230 231 232 232 233 234 236 237 238 239 241 243 246 249 254 258 263 267 271 276 280 285 289 293 297 300 304 307 309 311 313 314 315 317 317 317 318 319 320
224 225 228 230 231 233 234 234 234 235 237 239 240 241 242 245 248 251 255 260 264 268 272 276 280 283 287 291 294 298 301 303 306 308 310 311 312 314 314 315 315 316 318
225 226 227 229 231 233 235 236 237 238 239 241 242 244 246 247 249 252 256 261 265 269 272 276 280 283 287 290 293 297 299 301 303 305 307 308 310 311 312 312 312 313 315
224 225 226 229 231 234 237 239 240 241 242 243 245 247 249 251 253 255 259 263 266 270 274 277 280 283 286 289 292 294 296 298 300 302 304 305 307 309 309 310 310 311 312
225 226 226 229 232 235 238 241 243 245 246 246 247 249 251 253 255 258 261 264 267 271 275 278 281 283 285 287 290 292 294 296 297 299 301 302 304 306 306 307 307 308 309
226 228 229 231 233 236 239 242 244 246 248 250 251 252 253 255 257 260 263 266 269 272 275 278 280 282 284 286 288 290 292 294 295 297 298 300 301 303 304 304 304 305 306
226 229 231 233 234 236 239 242 245 247 249 251 253 254 256 258 260 262 265 267 270 273 275 277 279 281 283 285 287 289 291 292 293 295 296 298 299 301 302 302 302 303 304
227 229 231 234 236 238 240 242 244 248 250 252 254 255 257 259 262 264 266 269 271 274 276 277 279 281 283 284 286 287 289 291 292 293 294 296 297 298 299 300 300 300 301
228 230 232 234 236 239 242 244 246 248 251 253 255 257 259 261 263 266 268 270 272 275 276 278 279 280 281 283 284 286 288 289 290 291 293 294 295 297 297 298 298 299 300
230 232 233 236 238 240 243 245 248 250 252 254 256 258 260 262 265 266 268 270 273 275 276 278 279 279 281 282 284 286 286 287 288 290 291 292 293 294 295 296 298 298 298
231 233 235 237 239 241 244 246 248 250 251 254 256 259 261 263 265 266 268 271 273 274 275 277 277 278 279 281 284 285 287 287 287 288 290 291 292 293 293 294 296 297 297
233 235 236 238 240 242 244 246 249 250 252 254 257 259 261 263 265 266 268 270 272 273 274 275 276 276 279 280 281 283 285 287 288 288 289 290 291 291 292 292 294 295 295
234 235 237 239 241 243 244 246 248 250 252 255 257 259 261 263 265 266 267 268 270 272 273 274 274 276 278 279 280 281 283 285 286 288 288 289 290 290 291 292 293 293 293
236 236 238 239 241 244 245 247 249 251 253 255 257 259 260 262 264 266 268 269 270 272 272 273 274 276 278 278 280 281 282 284 285 286 288 289 288 289 291 292 292 291 291
Height
5870 5872 5874 5876 5878 5880 5882 5884 5885 5887 5888 5889 5890 5891 5892 5893 5894 5894 5895 5895 5895 5895 5896 5895 5895 5895 5895 5895 5894 5894 5893 5893 5892 5892 5891 5890 5889 5888 5887 5886 5885 5883 5882
5868 5870 5872 5875 5876 5879 5880 5882 5884 5885 5887 5888 5889 5890 5891 5892 5893 5894 5894 5895 5895 5895 5895 5895 5895 5895 5894 5894 5894 5894 5893 5893 5892 5891 5891 5890 5889 5888 5887 5886 5885 5883 5882
5865 5868 5870 5873 5875 5877 5879 5881 5882 5884 5885 5887 5888 5889 5891 5891 5892 5893 5894 5894 5894 5894 5894 5894 5894 5894 5894 5894 5894 5893 5893 5892 5892 5891 5891 5890 5889 5888 5887 5885 5884 5883 5881
5863 5866 5868 5871 5873 5875 5877 5879 5881 5883 5884 5885 5887 5888 5889 5890 5891 5892 5893 5893 5893 5894 5894 5894 5894 5894 5894 5893 5893 5893 5892 5892 5891 5891 5890 5889 5888 5887 5886 5885 5883 5882 5881
5860 5863 5866 5868 5871 5873 5875 5877 5879 5881 5882 5884 5885 5887 5888 5889 5890 5891 5891 5892 5892 5893 5893 5893 5893 5893 5893 5893 5892 5892 5892 5891 5891 5890 5889 5889 5888 5886 5885 5884 5882 5881 5880
5857 5860 5863 5866 5869 5871 5873 5875 5877 5879 5881 5882 5884 5885 5887 5888 5889 5890 5890 5891 5891 5892 5892 5892 5892 5892 5892 5892 5891 5891 5891 5890 5890 5889 5888 5887 5886 5885 5884 5883 5881 5880 5878
5854 5857 5860 5863 5866 5869 5871 5873 5875 5877 5879 5880 5882 5884 5885 5886 5887 5888 5889 5890 5890 5891 5891 5891 5891 5891 5891 5891 5890 5890 5890 5889 5889 5888 5887 5886 5885 5884 5882 5881 5880 5878 5877
5851 5854 5857 5860 5863 5866 5869 5871 5873 5875 5877 5879 5880 5882 5883 5884 5886 5887 5887 5888 5889 5889 5889 5890 5890 5890 5890 5889 5889 5889 5888 5888 5887 5886 5885 5884 5883 5882 5881 5879 5878 5876 5875
5847 5851 5854 5857 5860 5863 5866 5868 5871 5873 5875 5876 5878 5880 5881 5882 5884 5885 5886 5887 5887 5888 5888 5888 5888 5888 5888 5888 5887 5887 5886 5886 5885 5885 5884 5882 5881 5880 5879 5877 5876 5874 5872
5843 5847 5851 5854 5857 5860 5863 5866 5868 5870 5872 5874 5876 5878 5879 5880 5882 5883 5884 5885 5885 5886 5886 5886 5887 5886 5886 5886 5886 5885 5885 5884 5883 5883 5881 5880 5879 5878 5876 5875 5873 5871 5869
5839 5843 5847 5851 5854 5857 5860 5862 5865 5867 5869 5871 5873 5875 5877 5878 5879 5880 5881 5882 5883 5884 5884 5884 5885 5884 5884 5884 5884 5883 5882 5882 5881 5880 5879 5878 5876 5875 5873 5872 5870 5868 5866
5835 5839 5843 5847 5850 5853 5856 5859 5862 5864 5866 5868 5870 5872 5874 5875 5877 5878 5879 5880 5881 5881 5882 5882 5882 5882 5882 5881 5881 5880 5880 5879 5878 5877 5876 5875 5873 5872 5870 5868 5866 5864 5862
5830 5835 5839 5842 5846 5849 5853 5855 5858 5860 5863 5865 5867 5869 5871 5872 5874 5875 5876 5877 5878 5878 5879 5879 5879 5879 5879 5879 5878 5877 5877 5876 5875 5874 5872 5871 5870 5868 5867 5865 5863 5861 5858
5825 5830 5834 5838 5842 5845 5848 5851 5854 5857 5859 5861 5863 5865 5867 5869 5870 5871 5873 5874 5874 5875 5875 5876 5876 5876 5876 5875 5875 5874 5873 5872 5871 5870 5869 5867 5866 5864 5862 5860 5858 5856 5854
5820 5825 5829 5833 5837 5840 5844 5847 5850 5852 5855 5857 5859 5861 5863 5865 5866 5868 5869 5870 5871 5871 5871 5872 5872 5872 5872 5871 5871 5870 5869 5868 5867 5866 5864 5863 5861 5859 5858 5856 5854 5851 5849
5814 5819 5824 5828 5832 5836 5839 5842 5845 5848 5850 5852 5854 5856 5858 5860 5862 5863 5864 5865 5866 5867 5867 5867 5868 5868 5867 5867 5866 5866 5865 5864 5863 5861 5860 5858 5856 5854 5852 5851 5848 5846 5844
5808 5813 5818 5823 5827 5830 5834 5837 5840 5843 5845 5848 5850 5852 5853 5855 5857 5858 5859 5860 5861 5862 5862 5863 5863 5863 5863 5862 5862 5861 5860 5859 5857 5856 5854 5853 5851 5849 5847 5845 5843 5841 5838
5802 5807 5812 5817 5821 5825 5828 5831 5834 5837 5840 5842 5844 5846 5848 5850 5852 5853 5854 5855 5856 5857 5857 5857 5857 5857 5857 5857 5856 5855 5854 5853 5852 5850 5848 5847 5845 5843 5841 5839 5837 5834 5832
5796 5801 5806 5811 5815 5819 5822 5825 5828 5831 5834 5836 5838 5841 5842 5844 5846 5847 5849 5849 5850 5851 5851 5851 5851 5851 5851 5851 5850 5849 5848 5847 5846 5844 5842 5840 5838 5837 5835 5832 5830 5828 5825
5789 5795 5800 5805 5809 5812 5815 5819 5822 5825 5827 5830 5832 5834 5836 5838 5840 5841 5842 5843 5844 5845 5845 5845 5845 5844 5844 5844 5843 5843 5842 5840 5839 5837 5835 5833 5831 5829 5827 5825 5823 5820 5817
5782 5788 5793 5797 5802 5805 5809 5812 5815 5818 5821 5823 5825 5827 5829 5831 5833 5834 5835 5836 5837 5837 5838 5838 5838 5837 5837 5836 5836 5835 5835 5833 5832 5830 5828 5826 5823 5821 5819 5817 5815 5812 5810
5775 5781 5785 5790 5794 5798 5802 5805 5809 5811 5813 5816 5818 5820 5822 5823 5825 5826 5827 5828 5829 5829 5830 5830 5830 5829 5829 5828 5827 5827 5827 5827 5824 5822 5820 5818 5816 5813 5810 5808 5805 5803 5801
5768 5773 5778 5783 5787 5790 5794 5798 5801 5803 5805 5808 5810 5812 5814 5815 5817 5818 5819 5820 5821 5821 5821 5821 5821 5821 5820 5820 5818 5817 5817 5817 5815 5814 5812 5810 5807 5805 5802 5799 5796 5794 5791
5760 5765 5770 5774 5778 5782 5786 5789 5792 5795 5797 5800 5802 5804 5805 5806 5808 5809 5810 5811 5812 5812 5812 5812 5812 5812 5811 5810 5809 5808 5807 5806 5804 5804 5803 5800 5798 5795 5793 5790 5787 5785 5782
5751 5756 5761 5765 5769 5773 5777 5780 5784 5787 5789 5791 5793 5795 5797 5798 5799 5800 5801 5801 5802 5802 5803 5803 5802 5802 5801 5801 5800 5799 5797 5795 5794 5792 5792 5791 5788 5786 5783 5780 5778 5775 5772
5742 5747 5752 5756 5761 5764 5768 5771 5774 5777 5779 5781 5784 5785 5787 5788 5790 5790 5791 5791 5792 5792 5792 5792 5792 5792 5791 5790 5789 5788 5787 5786 5784 5782 5780 5779 5777 5776 5773 5770 5767 5764 5761